This is the latest recevied weather packets stored in our database for station/object WB4YDL. If no packets are shown the sender has not sent any weather packets the latest 10 day(s).
| Time | Temp. | Humidity | Pressure | Rain* | Wind** | Luminosity | Snow |
|---|---|---|---|---|---|---|---|
| 1777852533 | 21.11° C | 42% | 1008.9 hPa | 0 mm | - | 46 W/m² | - |
| 1777852229 | 21.11° C | 42% | 1009.1 hPa | 0 mm | - | 53 W/m² | - |
| 1777851927 | 21.11° C | 43% | 1008.9 hPa | 0 mm | - | 60 W/m² | - |
| 1777851626 | 21.11° C | 43% | 1009.1 hPa | 0 mm | - | 65 W/m² | - |
| 1777851321 | 21.11° C | 42% | 1009.3 hPa | 0 mm | - | 74 W/m² | - |
| 1777851017 | 21.67° C | 41% | 1009.4 hPa | 0 mm | - | 84 W/m² | - |
| 1777850715 | 21.67° C | 41% | 1009.2 hPa | 0 mm | - | 94 W/m² | - |
| 1777850412 | 21.67° C | 41% | 1009 hPa | 0 mm | - | 105 W/m² | - |
| 1777850110 | 21.67° C | 41% | 1009.3 hPa | 0 mm | - | 117 W/m² | - |
| 1777849806 | 21.67° C | 40% | 1009.3 hPa | 0 mm | - | 128 W/m² | - |
| 1777849503 | 21.67° C | 40% | 1009.3 hPa | 0 mm | - | 140 W/m² | - |
| 1777849201 | 21.67° C | 41% | 1009.4 hPa | 0 mm | - | 154 W/m² | - |
| 1777848897 | 21.67° C | 41% | 1009.8 hPa | 0 mm | - | 167 W/m² | - |
| 1777848592 | 22.22° C | 40% | 1009.6 hPa | 0 mm | - | 180 W/m² | - |
| 1777848290 | 22.22° C | 41% | 1009.7 hPa | 0 mm | - | 194 W/m² | - |
| 1777847988 | 21.67° C | 40% | 1009.8 hPa | 0 mm | - | 211 W/m² | - |
| 1777847685 | 21.67° C | 40% | 1009.7 hPa | 0 mm | - | 226 W/m² | - |
| 1777847381 | 21.67° C | 39% | 1009.9 hPa | 0 mm | - | 242 W/m² | - |
| 1777847079 | 22.22° C | 39% | 1009.8 hPa | 0 mm | - | 257 W/m² | - |
| 1777846777 | 21.67° C | 38% | 1009.9 hPa | 0 mm | - | 277 W/m² | - |
| 1777846475 | 22.22° C | 39% | 1009.9 hPa | 0 mm | - | 295 W/m² | - |
| 1777846172 | 21.67° C | 39% | 1010.1 hPa | 0 mm | - | 314 W/m² | - |
| 1777845868 | 22.22° C | 40% | 1010.2 hPa | 0 mm | - | 331 W/m² | - |
| 1777845565 | 22.22° C | 40% | 1010 hPa | 0 mm | - | 350 W/m² | - |
| 1777845262 | 22.22° C | 38% | 1010.1 hPa | 0 mm | - | 368 W/m² | - |
* Rain latest hour (hover to see other rain measurements)
** Current wind speed in m/s (hover to see current wind gust speed)